Regional Weather Roundup
Issued by NWS

Home | Current Version | Previous Version | Text Only | Print | Product List | Glossary On
Versions: 1 2 3 4 5 6 7 8 9 10 11 12 13 14 15 16 17 18 19 20 21 22 23 24 25 26 27 28 29 30 31 32 33 34 35 36 37 38 39 40 41 42 43 44 45 46 47 48 49 50
000
ASUS43 KLSX 290807
RWRMO

WEATHER SUMMARY FOR MISSOURI
NATIONAL WEATHER SERVICE SPRINGFIELD MO
200 AM CST MON DEC 29 2014

NOTE: "FAIR" INDICATES FEW OR NO CLOUDS BELOW 12,000 FEET WITH NO
       SIGNIFICANT WEATHER AND/OR OBSTRUCTIONS TO VISIBILITY.
       CURRENT SKY AND/OR WEATHER CONDITIONS ARE NOT AVAILABLE FOR
       CHILLICOTHE AND FARMINGTON.

MOZ001>031-035>038-043-044-053-054-290900-
...NORTHERN AND WESTERN MISSOURI...

CITY           SKY/WX    TMP DP  RH WIND       PRES   REMARKS
KANSAS CTY INT CLOUDY    27  21  78 S7        30.20S WCI  19
KANSAS C DTWN  CLOUDY    32  22  66 CALM      30.21S
LEE`S SUMMIT   CLOUDY    30  20  66 S3        30.21S
ST JOSEPH      CLOUDY    28  24  85 CALM      30.22R
CHILLICOTHE      N/A     27  23  85 CALM      30.24R
KIRKSVILLE     CLOUDY    26  23  88 CALM      30.24R

$$
MOZ066>068-077>081-088>096-101>105-290900-
...SOUTHWEST MISSOURI...

CITY           SKY/WX    TMP DP  RH WIND       PRES   REMARKS
SPRINGFIELD    CLEAR     23  18  81 CALM      30.17S
JOPLIN         CLEAR     23  20  88 E6        30.18F WCI  16

$$
MOZ032>034-039>042-045>050-055>058-069>072-290900-
...CENTRAL MISSOURI...

CITY           SKY/WX    TMP DP  RH WIND       PRES   REMARKS
COLUMBIA       CLEAR     24  19  81 E3        30.22R
JEFFERSON CITY CLEAR     21  18  88 CALM      30.24S
ROLLA          CLEAR     23  20  88 CALM      30.19R
SEDALIA        PTCLDY    26  20  77 CALM      30.23R
WHITEMAN AFB   MOCLDY    27  21  80 CALM      30.19S
WARRENSBURG    MOCLDY    25  23  93 CALM      30.23R
OSAGE BEACH    CLEAR     21  18  86 CALM      30.21S

$$
MOZ051-052-059>065-290900-
...EAST CENTRAL MISSOURI...

CITY           SKY/WX    TMP DP  RH WIND       PRES   REMARKS
ST LOUIS INTL  CLEAR     25  21  85 CALM      30.26R
SPIRIT OF STL  CLEAR     22  19  89 CALM      30.25R
ST CHARLES     CLEAR     26  24  92 E3        30.26R

$$
MOZ072>076-082>087-097>100-106>115-290900-
...SOUTH CENTRAL AND SOUTHEAST MISSOURI...

CITY           SKY/WX    TMP DP  RH WIND       PRES   REMARKS
CAPE GIRARDEAU CLOUDY    32  27  81 NE8       30.23R WCI  25
FARMINGTON     FAIR      21  19  93 CALM      30.22R
POPLAR BLUFF   CLOUDY    32  25  75 NE8       30.22R WCI  25
WEST PLAINS    CLEAR     20  17  88 N3        30.19R

$$



USA.gov is the U.S. government's official web portal to all federal, state and local government web resources and services.